weather.gov     
National Weather Service

Terminal Aerodrome Forecast
NWS Homepage
This page is being discontinued on March 12, 2014.
The same data is available at this site. Please update your bookmarks.
Thank you, and we apologize for the inconvenience.
Please send an email to SR-SRH.Webmaster@noaa.gov with any concerns.


Current Version
Previous Version:    01  02  03  04  05  06  07  08  09  10  11  12  13  14  15  16  17  18  19  20  21  22  23  24  25  26  27  28  29  30  
   31  
[Printable]
772
FTUS43 KDTX 221120
TAFMBS
TAF
KMBS 221120Z 2212/2312 15005KT 5SM BR SCT150 BKN200
     FM221500 13007KT P6SM SCT050 BKN180
     FM222000 11007KT P6SM BKN035
     FM230100 11007KT 5SM BR OVC030
     FM230500 10009KT 3SM -RA BR OVC012=




772
FTUS43 KDTX 221120
TAFMBS
TAF
KMBS 221120Z 2212/2312 15005KT 5SM BR SCT150 BKN200
     FM221500 13007KT P6SM SCT050 BKN180
     FM222000 11007KT P6SM BKN035
     FM230100 11007KT 5SM BR OVC030
     FM230500 10009KT 3SM -RA BR OVC012=


U.S. Dept. of Commerce
NOAA National Weather Service
1325 East West Highway
Silver Spring, MD 20910
E-mail: w-nws.webmaster@noaa.gov
Page last modified: May 16, 2007
NATIONAL WEATHER SERVICE: for Safety, for Work, for Fun - FOR LIFE